This is the latest recevied weather packets stored in our database for station/object IU1OPQ-3. If no packets are shown the sender has not sent any weather packets the latest 10 day(s).
| Time | Temp. | Humidity | Pressure | Rain* | Wind** | Luminosity | Snow |
|---|---|---|---|---|---|---|---|
| 1777537801 | 9.44° C | 82% | 1022.8 hPa | 0 mm | - | - | - |
| 1777536901 | 10° C | 83% | 1022.4 hPa | 0 mm | - | - | - |
| 1777536001 | 9.44° C | 84% | 1022.6 hPa | 0 mm | - | - | - |
| 1777535101 | 9.44° C | 86% | 1022.3 hPa | 0 mm | - | - | - |
| 1777534201 | 9.44° C | 89% | 1022.2 hPa | 0 mm | - | - | - |
| 1777533301 | 9.44° C | 90% | 1021.9 hPa | 0 mm | - | - | - |
| 1777532401 | 10° C | 90% | 1021.8 hPa | 0 mm | - | - | - |
| 1777531501 | 10° C | 91% | 1021.5 hPa | 0 mm | - | - | - |
| 1777530601 | 10° C | 90% | 1021.5 hPa | 0 mm | - | - | - |
| 1777529701 | 10° C | 90% | 1021.3 hPa | 0 mm | - | - | - |
| 1777528800 | 10° C | 89% | 1021 hPa | 0 mm | - | - | - |
| 1777527901 | 10° C | 90% | 1020.9 hPa | 0 mm | - | - | - |
| 1777527001 | 10.56° C | 90% | 1021 hPa | 0 mm | - | - | - |
| 1777526101 | 10° C | 90% | 1020.7 hPa | 0 mm | - | - | - |
| 1777525201 | 10° C | 90% | 1020.4 hPa | 0 mm | - | - | - |
| 1777524301 | 10.56° C | 89% | 1020.4 hPa | 0 mm | - | - | - |
| 1777523401 | 10.56° C | 88% | 1020.2 hPa | 0 mm | - | - | - |
| 1777522501 | 10.56° C | 86% | 1020 hPa | 0 mm | - | - | - |
| 1777521601 | 11.11° C | 85% | 1019.9 hPa | 0 mm | - | - | - |
| 1777520701 | 11.11° C | 83% | 1019.8 hPa | 0 mm | - | - | - |
| 1777519801 | 11.11° C | 87% | 1019.6 hPa | 0 mm | - | - | - |
| 1777518901 | 11.11° C | 89% | 1019.5 hPa | 0 mm | - | - | - |
| 1777518001 | 11.11° C | 88% | 1019.1 hPa | 0 mm | - | - | - |
| 1777517101 | 11.11° C | 86% | 1019.1 hPa | 0 mm | - | - | - |
| 1777516200 | 11.11° C | 86% | 1018.9 hPa | 0 mm | - | - | - |
* Rain latest hour (hover to see other rain measurements)
** Current wind speed in m/s (hover to see current wind gust speed)